GW7070 Weather Reports


time (UTC)temp
C
wind
direction
speed
KPH
gust
KPH
rain 1hr
cm
rain 24hr
cm
rain mn
cm
humidity
%
barometer
mb
20260507213507 25 76 3.2 9.7 0.03 0.13 0.13 94 1015.4
20260507213017 25 78 4.8 8.0 0.00 0.10 0.10 94 1015.4
20260507212506 25 53 3.2 8.0 0.00 0.10 0.10 94 1015.4
20260507212009 25 46 3.2 8.0 0.00 0.10 0.10 95 1015.3
20260507211517 25 16 3.2 9.7 0.08 0.10 0.10 95 1015.4
20260507211008 25 57 3.2 9.7 0.10 0.10 0.10 95 1015.4
20260507210506 25 58 4.8 9.7 0.10 0.10 0.10 95 1015.3
20260507210022 25 104 1.6 11.3 0.10 0.10 0.10 94 1015.2
20260507205512 25 107 3.2 11.3 0.10 0.10 0.10 94 1015.1
20260507205010 25 111 1.6 11.3 0.10 0.10 0.10 94 1015.2
20260507204525 25 112 3.2 11.3 0.10 0.10 0.10 94 1015.2
20260507204009 25 98 3.2 8.0 0.10 0.10 0.10 94 1015.3
20260507203506 25 47 1.6 8.0 0.10 0.10 0.10 94 1015.1
20260507203010 25 72 3.2 14.5 0.10 0.10 0.10 93 1015.3
20260507202508 25 88 4.8 16.1 0.10 0.10 0.10 92 1015.3
20260507202010 25 120 6.4 17.7 0.10 0.10 0.10 91 1015.3
20260507201530 25 123 8.0 19.3 0.03 0.03 0.03 90 1015.3
20260507201009 26 123 8.0 19.3 0.00 0.00 0.00 89 1015.5
20260507200508 27 147 8.0 17.7 0.00 0.00 0.00 87 1015.5
20260507200020 28 123 8.0 22.5 0.00 0.00 0.00 83 1015.6
20260507195508 29 90 11.3 22.5 0.00 0.00 0.00 80 1015.8
20260507195010 29 21 6.4 20.9 0.00 0.00 0.00 80 1015.6
20260507194527 30 312 11.3 22.5 0.00 0.00 0.00 80 1015.5
20260507194012 30 322 9.7 22.5 0.00 0.00 0.00 80 1015.4
20260507193510 30 316 14.5 22.5 0.00 0.00 0.00 79 1015.3
20260507193027 30 346 9.7 25.7 0.00 0.00 0.00 81 1015.4
20260507192511 29 297 12.9 25.7 0.00 0.00 0.00 81 1015.3
20260507192007 29 342 11.3 20.9 0.00 0.00 0.00 81 1015.4
20260507191515 30 306 9.7 22.5 0.00 0.00 0.00 81 1015.4
20260507191010 29 9 9.7 22.5 0.00 0.00 0.00 82 1015.4
20260507190507 29 290 9.7 22.5 0.00 0.00 0.00 81 1015.4
20260507190019 29 352 11.3 22.5 0.00 0.00 0.00 80 1015.5
20260507185511 29 352 12.9 25.7 0.00 0.00 0.00 81 1015.4
20260507185008 28 332 8.0 25.7 0.00 0.00 0.00 81 1015.3
20260507184524 29 315 14.5 25.7 0.00 0.00 0.00 80 1015.4
20260507184007 29 314 16.1 25.7 0.00 0.00 0.00 79 1015.4
20260507183510 30 348 12.9 24.1 0.00 0.00 0.00 79 1015.6
20260507183010 29 346 11.3 27.4 0.00 0.00 0.00 80 1015.6
20260507182504 29 340 11.3 27.4 0.00 0.00 0.00 79 1015.7
20260507182008 30 307 9.7 20.9 0.00 0.00 0.00 79 1015.7
20260507181510 30 348 6.4 22.5 0.00 0.00 0.00 79 1015.9
20260507181004 30 56 9.7 22.5 0.00 0.00 0.00 80 1015.9
20260507180507 29 317 9.7 19.3 0.00 0.00 0.00 79 1015.8
20260507180021 29 334 8.0 19.3 0.00 0.00 0.00 79 1015.9
20260507175509 29 24 8.0 19.3 0.00 0.00 0.00 78 1015.9
20260507175008 29 355 9.7 19.3 0.00 0.00 0.00 78 1016.0
20260507174523 30 11 6.4 19.3 0.00 0.00 0.00 78 1016.2
20260507174010 30 345 8.0 19.3 0.00 0.00 0.00 78 1016.3
20260507173506 29 340 9.7 17.7 0.00 0.00 0.00 78 1016.3
20260507173047 29 355 6.4 17.7 0.00 0.00 0.00 77 1016.3
20260507172504 29 14 6.4 20.9 0.00 0.00 0.00 77 1016.5
20260507172003 30 336 11.3 20.9 0.00 0.00 0.00 75 1016.5
20260507171506 29 21 6.4 24.1 0.00 0.00 0.00 76 1016.6
20260507171004 29 343 9.7 24.1 0.00 0.00 0.00 77 1016.6
20260507170504 28 331 9.7 20.9 0.00 0.00 0.00 78 1016.7
20260507170014 28 333 12.9 22.5 0.00 0.00 0.00 79 1016.7
20260507165507 28 316 12.9 22.5 0.00 0.00 0.00 79 1016.8
20260507165005 29 342 9.7 16.1 0.00 0.00 0.00 78 1016.9
20260507164519 29 355 3.2 11.3 0.00 0.00 0.00 78 1017.1
20260507164007 29 333 4.8 16.1 0.00 0.00 0.00 77 1017.0
20260507163512 30 355 3.2 16.1 0.00 0.00 0.00 77 1017.1
20260507163025 30 352 6.4 16.1 0.00 0.00 0.00 74 1017.2
20260507162517 31 121 1.6 14.5 0.00 0.00 0.00 74 1017.2
20260507162012 31 96 6.4 17.7 0.00 0.00 0.00 74 1017.2
20260507161525 31 138 8.0 20.9 0.00 0.00 0.00 75 1017.2
20260507161003 31 144 11.3 20.9 0.00 0.00 0.00 74 1017.1
20260507160505 30 182 9.7 25.7 0.00 0.00 0.00 74 1017.0
20260507160010 30 156 14.5 25.7 0.00 0.00 0.00 75 1017.2
20260507155514 30 192 12.9 20.9 0.00 0.00 0.00 75 1017.2
20260507155006 30 166 11.3 20.9 0.00 0.00 0.00 75 1017.2
20260507154514 31 154 9.7 20.9 0.00 0.00 0.00 74 1017.2
20260507154011 31 150 9.7 20.9 0.00 0.00 0.00 74 1017.3
20260507153506 31 150 11.3 22.5 0.00 0.00 0.00 73 1017.3
20260507153017 31 151 12.9 22.5 0.00 0.00 0.00 73 1017.3
20260507152508 31 123 6.4 20.9 0.00 0.00 0.00 73 1017.3
20260507152017 30 136 11.3 29.0 0.00 0.00 0.00 73 1017.4
20260507151522 30 132 9.7 29.0 0.00 0.00 0.00 74 1017.4
20260507151011 30 146 9.7 25.7 0.00 0.00 0.00 72 1017.5
20260507150012 31 183 11.3 19.3 0.00 0.00 0.00 71 1017.5
20260507145506 31 82 8.0 25.7 0.00 0.00 0.00 72 1017.5
20260507145007 31 115 9.7 25.7 0.00 0.00 0.00 72 1017.5
20260507144510 31 157 14.5 25.7 0.00 0.00 0.00 72 1017.5
20260507144006 30 126 8.0 17.7 0.00 0.00 0.00 74 1017.5
20260507143510 30 156 9.7 22.5 0.00 0.00 0.00 75 1017.6
20260507142509 30 111 9.7 20.9 0.00 0.00 0.00 75 1017.7
20260507142022 30 80 9.7 20.9 0.00 0.00 0.00 75 1017.7
20260507141520 30 133 9.7 20.9 0.00 0.00 0.00 75 1017.7
20260507141011 30 78 6.4 16.1 0.00 0.00 0.00 76 1017.7
20260507140509 30 117 4.8 19.3 0.00 0.00 0.00 76 1017.7
20260507140026 29 122 12.9 19.3 0.00 0.00 0.00 76 1017.7
20260507135510 29 87 11.3 19.3 0.00 0.00 0.00 77 1017.7
20260507135011 28 123 6.4 17.7 0.00 0.00 0.00 77 1017.6
20260507134006 29 129 8.0 17.7 0.00 0.00 0.00 76 1017.6
20260507133504 29 121 6.4 19.3 0.00 0.00 0.00 76 1017.6
20260507133017 29 134 11.3 19.3 0.00 0.00 0.00 76 1017.6
20260507132512 29 90 8.0 19.3 0.00 0.00 0.00 77 1017.5
20260507132008 29 78 6.4 20.9 0.00 0.00 0.00 77 1017.6
20260507131007 28 96 11.3 20.9 0.00 0.00 0.00 79 1017.6
20260507130510 28 112 6.4 17.7 0.00 0.00 0.00 80 1017.6
20260507130023 28 161 9.7 17.7 0.00 0.00 0.00 80 1017.5
20260507125511 28 159 8.0 19.3 0.00 0.00 0.00 79 1017.5
20260507125013 28 125 8.0 19.3 0.00 0.00 0.00 80 1017.4
20260507124527 28 124 11.3 19.3 0.00 0.00 0.00 80 1017.4
20260507124008 28 84 8.0 14.5 0.00 0.00 0.00 80 1017.3
20260507123506 28 147 8.0 17.7 0.00 0.00 0.00 81 1017.3
20260507122504 28 126 8.0 19.3 0.00 0.00 0.00 81 1017.1
20260507122004 27 157 6.4 19.3 0.00 0.00 0.00 81 1017.1
20260507121508 27 180 8.0 19.3 0.00 0.00 0.00 81 1017.0
20260507121006 27 157 8.0 19.3 0.00 0.00 0.00 82 1016.9
20260507120504 27 146 11.3 22.5 0.00 0.00 0.00 82 1016.8
20260507120007 27 140 11.3 22.5 0.00 0.00 0.00 82 1016.6
20260507115505 27 156 11.3 20.9 0.00 0.00 0.00 81 1016.6
20260507115004 27 116 12.9 19.3 0.00 0.00 0.00 81 1016.6
20260507114505 27 129 9.7 16.1 0.00 0.00 0.00 82 1016.6
20260507113505 27 94 4.8 11.3 0.00 0.00 0.00 83 1016.5
20260507112506 26 136 4.8 14.5 0.00 0.00 0.00 85 1016.5
20260507111008 26 121 4.8 11.3 0.00 0.00 0.00 87 1016.5
20260507110504 25 109 6.4 11.3 0.00 0.00 0.00 88 1016.5
20260507110008 25 107 3.2 9.7 0.00 0.00 0.00 89 1016.5
20260507105506 24 101 4.8 9.7 0.00 0.00 0.00 90 1016.6
20260507105003 24 95 4.8 9.7 0.00 0.00 0.00 91 1016.5
20260507104511 23 98 1.6 6.4 0.00 0.00 0.00 91 1016.5
20260507104005 23 95 1.6 4.8 0.00 0.00 0.00 91 1016.4
20260507103504 23 90 1.6 4.8 0.00 0.00 0.00 91 1016.4
20260507103007 23 82 1.6 4.8 0.00 0.00 0.00 92 1016.3
20260507102505 23 78 1.6 4.8 0.00 0.00 0.00 92 1016.3
20260507102007 22 78 1.6 6.4 0.00 0.00 0.00 92 1016.2
20260507101511 22 78 3.2 6.4 0.00 0.00 0.00 93 1016.1
20260507101007 22 96 1.6 4.8 0.00 0.00 0.00 92 1016.0
20260507100506 22 96 1.6 6.4 0.00 0.00 0.00 92 1015.9
20260507100017 22 96 3.2 6.4 0.00 0.00 0.00 93 1015.8
20260507095504 22 96 0.0 4.8 0.00 0.00 0.00 93 1015.7
20260507095004 22 96 1.6 4.8 0.00 0.00 0.00 93 1015.6
20260507094512 22 96 0.0 4.8 0.00 0.00 0.00 93 1015.6
20260507094013 22 96 1.6 4.8 0.00 0.00 0.00 93 1015.6
20260507093506 22 96 0.0 4.8 0.00 0.00 0.00 93 1015.6
20260507093013 22 96 0.0 3.2 0.00 0.00 0.00 93 1015.7
20260507092505 22 96 0.0 3.2 0.00 0.00 0.00 93 1015.7
20260507092005 22 96 0.0 3.2 0.00 0.00 0.00 92 1015.8
20260507091506 22 96 1.6 4.8 0.00 0.00 0.00 92 1015.8
20260507091007 22 96 0.0 4.8 0.00 0.00 0.00 92 1015.8
20260507090507 22 96 1.6 4.8 0.00 0.00 0.00 92 1015.9
20260507090012 22 96 1.6 4.8 0.00 0.00 0.00 92 1015.9
20260507085507 22 96 1.6 4.8 0.00 0.00 0.00 92 1015.8
20260507085008 22 96 1.6 6.4 0.00 0.00 0.00 92 1015.9
20260507084514 22 96 0.0 6.4 0.00 0.00 0.00 92 1015.9
20260507084007 22 96 1.6 6.4 0.00 0.00 0.00 92 1015.9
20260507083504 22 96 0.0 6.4 0.00 0.00 0.00 92 1015.9
20260507083016 22 97 0.0 6.4 0.00 0.00 0.00 92 1016.0
20260507082504 22 98 0.0 6.4 0.00 0.00 0.00 93 1016.0
20260507082007 22 103 1.6 6.4 0.00 0.00 0.00 93 1016.0
20260507081515 22 103 0.0 4.8 0.00 0.00 0.00 93 1015.9
20260507081005 22 103 0.0 4.8 0.00 0.00 0.00 93 1015.8
20260507080013 22 103 0.0 4.8 0.00 0.00 0.00 93 1015.8
20260507075008 22 103 0.0 3.2 0.00 0.00 0.00 93 1015.8
20260507074515 22 103 0.0 3.2 0.00 0.00 0.00 93 1015.9
20260507073508 22 103 0.0 4.8 0.00 0.00 0.00 93 1016.0
20260507073017 22 103 0.0 4.8 0.00 0.00 0.00 93 1015.9
20260507072505 22 103 0.0 4.8 0.00 0.00 0.00 93 1016.0
20260507072006 22 103 1.6 4.8 0.00 0.00 0.00 93 1016.1
20260507071518 22 103 0.0 4.8 0.00 0.00 0.00 93 1016.1
20260507071005 22 103 1.6 4.8 0.00 0.00 0.00 93 1016.2
20260507070507 22 103 1.6 4.8 0.00 0.00 0.00 93 1016.2
20260507070026 22 103 0.0 4.8 0.00 0.00 0.00 93 1016.2
20260507065003 22 104 0.0 4.8 0.00 0.00 0.00 93 1016.3
20260507064516 22 104 0.0 3.2 0.00 0.00 0.00 93 1016.4
20260507064008 22 104 0.0 3.2 0.00 0.00 0.00 93 1016.4
20260507063510 22 104 0.0 3.2 0.00 0.00 0.00 93 1016.6
20260507062504 22 104 0.0 6.4 0.00 0.00 0.00 93 1016.6
20260507062004 22 104 0.0 6.4 0.00 0.00 0.00 93 1016.6
20260507061508 22 104 0.0 6.4 0.00 0.00 0.00 93 1016.7
20260507054511 23 112 0.0 4.8 0.00 0.00 0.00 92 1017.2
20260507054004 23 113 1.6 4.8 0.00 0.00 0.00 92 1017.2
20260507053504 23 113 0.0 4.8 0.00 0.00 0.00 92 1017.3
20260507053010 23 113 1.6 4.8 0.00 0.00 0.00 92 1017.3
20260507052504 23 113 1.6 4.8 0.00 0.00 0.00 92 1017.4
20260507052007 23 113 1.6 6.4 0.00 0.00 0.00 92 1017.4
20260507051514 23 113 0.0 6.4 0.00 0.00 0.00 92 1017.5
20260507051005 23 105 1.6 6.4 0.00 0.00 0.00 92 1017.6
20260507050505 23 104 1.6 6.4 0.00 0.00 0.00 92 1017.7
20260507050020 23 112 0.0 6.4 0.00 0.00 0.00 92 1017.7
20260507044509 23 107 0.0 4.8 0.00 0.00 0.00 93 1017.9
20260507043010 24 107 0.0 4.8 0.00 0.00 0.00 92 1018.1
20260507042007 24 107 1.6 3.2 0.00 0.00 0.00 92 1018.2
20260507041513 24 107 0.0 3.2 0.00 0.00 0.00 92 1018.3
20260507041005 24 107 0.0 0.0 0.00 0.00 0.00 92 1018.3
20260507040507 24 107 0.0 0.0 0.00 0.00 0.00 92 1018.4
20260507040013 25 107 0.0 3.2 0.00 0.00 0.00 91 1018.5
20260507035508 25 106 0.0 4.8 0.00 0.00 0.00 91 1018.5
20260507035008 25 107 0.0 4.8 0.00 0.00 0.00 91 1018.4
20260507034513 25 107 1.6 4.8 0.00 0.00 0.00 91 1018.4
20260507033013 25 107 1.6 6.4 0.00 0.00 0.00 91 1018.6
20260507032508 25 107 1.6 6.4 0.00 0.00 0.00 91 1018.7
20260507032017 25 107 1.6 4.8 0.00 0.00 0.00 91 1018.7
20260507031009 25 107 0.0 4.8 0.00 0.00 0.00 91 1018.7
20260507030509 25 107 1.6 6.4 0.00 0.00 0.00 91 1018.8
20260507030017 25 107 0.0 6.4 0.00 0.00 0.00 91 1018.8
20260507025507 25 107 1.6 6.4 0.00 0.00 0.00 91 1018.7
20260507025008 25 107 0.0 3.2 0.00 0.00 0.00 91 1018.7
20260507024514 25 107 1.6 4.8 0.00 0.00 0.00 91 1018.6
20260507024007 25 107 0.0 4.8 0.00 0.00 0.00 91 1018.7
20260507023507 25 107 0.0 4.8 0.00 0.00 0.00 90 1018.7
20260507023010 26 107 0.0 4.8 0.00 0.00 0.00 90 1018.6
20260507021514 26 107 1.6 6.4 0.00 0.00 0.00 90 1018.5
20260507015504 26 107 0.0 4.8 0.00 0.00 0.00 90 1018.4
20260507015009 26 107 1.6 4.8 0.00 0.00 0.00 89 1018.3
20260507014521 26 107 0.0 4.8 0.00 0.00 0.00 89 1018.2
20260507014007 26 107 0.0 4.8 0.00 0.00 0.00 89 1018.2
20260507013508 26 107 1.6 4.8 0.00 0.00 0.00 88 1018.1
20260507013016 26 107 1.6 6.4 0.00 0.00 0.00 87 1018.1
20260507012510 27 106 1.6 8.0 0.00 0.00 0.00 86 1018.1
20260507012009 27 101 3.2 9.7 0.00 0.00 0.00 86 1018.1
20260507011523 27 117 3.2 9.7 0.00 0.00 0.00 86 1018.0
20260507010020 27 109 3.2 12.9 0.00 0.00 0.00 86 1017.9
20260507005007 27 123 4.8 14.5 0.00 0.00 0.00 86 1017.9
20260507004520 27 96 4.8 17.7 0.00 0.00 0.00 86 1017.9
20260507004006 27 138 9.7 17.7 0.00 0.00 0.00 86 1017.8
20260507003507 27 122 6.4 16.1 0.00 0.00 0.00 86 1017.7
20260507003019 27 134 8.0 14.5 0.00 0.00 0.00 86 1017.7
20260507002507 27 142 6.4 14.5 0.00 0.00 0.00 86 1017.6
20260507002007 27 130 6.4 14.5 0.00 0.00 0.00 86 1017.6
20260507001525 27 132 3.2 11.3 0.00 0.00 0.00 85 1017.6
20260507001007 27 123 3.2 11.3 0.00 0.00 0.00 85 1017.6
20260507000507 27 116 4.8 14.5 0.00 0.00 0.00 85 1017.6
20260507000015 27 105 3.2 14.5 0.00 0.00 0.00 84 1017.5
20260506233507 27 150 6.4 12.9 0.00 0.00 0.00 83 1017.3
20260506233021 27 115 8.0 12.9 0.00 0.00 0.00 83 1017.3
20260506232506 27 148 6.4 14.5 0.00 0.00 0.00 83 1017.2
20260506232010 27 136 6.4 14.5 0.00 0.00 0.00 83 1017.0
20260506231522 28 138 6.4 16.1 0.00 0.00 0.00 83 1016.8
20260506231007 28 175 9.7 17.7 0.00 0.00 0.00 82 1016.8
20260506230506 28 137 9.7 17.7 0.00 0.00 0.00 82 1016.8
20260506230022 28 150 9.7 16.1 0.00 0.00 0.00 82 1016.7
20260506225508 28 146 8.0 14.5 0.00 0.00 0.00 81 1016.7
20260506225016 28 139 8.0 16.1 0.00 0.00 0.00 81 1016.7
20260506224517 28 137 6.4 16.1 0.00 0.00 0.00 80 1016.7
20260506224006 28 134 8.0 17.7 0.00 0.00 0.00 80 1016.7
20260506223505 28 157 3.2 19.3 0.00 0.00 0.00 79 1016.6
20260506223019 28 161 9.7 19.3 0.00 0.00 0.00 79 1016.5
20260506222506 28 149 9.7 19.3 0.00 0.00 0.00 78 1016.4
20260506222008 28 174 9.7 22.5 0.00 0.00 0.00 78 1016.3
20260506221517 29 146 8.0 22.5 0.00 0.00 0.00 77 1016.4
20260506221007 29 199 12.9 25.7 0.00 0.00 0.00 77 1016.3
20260506220507 29 134 8.0 25.7 0.00 0.00 0.00 77 1016.3
20260506220018 29 159 14.5 24.1 0.00 0.00 0.00 77 1016.3
20260506215510 29 170 11.3 22.5 0.00 0.00 0.00 76 1016.2
20260506215008 29 183 12.9 22.5 0.00 0.00 0.00 75 1016.2
20260506214520 30 157 8.0 22.5 0.00 0.00 0.00 75 1016.2
20260506214010 30 123 9.7 22.5 0.00 0.00 0.00 75 1016.1